This is the latest recevied weather packets stored in our database for station/object ALTO-WX. If no packets are shown the sender has not sent any weather packets the latest 10 day(s).
| Time | Temp. | Humidity | Pressure | Rain* | Wind** | Luminosity | Snow |
|---|---|---|---|---|---|---|---|
| 1778292063 | 10.56° C | 29% | 977.3 hPa | 0 mm | - | - | - |
| 1778291133 | 11.11° C | 31% | 977.3 hPa | 0 mm | - | - | - |
| 1778290248 | 11.11° C | 31% | 977.3 hPa | 0 mm | - | - | - |
| 1778289333 | 11.67° C | 31% | 977.3 hPa | 0 mm | - | - | - |
| 1778288459 | 11.67° C | 31% | 977.3 hPa | 0 mm | - | - | - |
| 1778287532 | 12.22° C | 25% | 977.1 hPa | 0 mm | - | - | - |
| 1778286651 | 12.78° C | 26% | 978.4 hPa | 0 mm | - | - | - |
| 1778285732 | 13.33° C | 26% | 978.4 hPa | 0 mm | - | - | - |
| 1778284867 | 14.44° C | 26% | 978.4 hPa | 0 mm | - | - | - |
| 1778283933 | 15° C | 22% | 977.7 hPa | 0 mm | - | - | - |
| 1778283052 | 15° C | 22% | 977.9 hPa | 0 mm | - | - | - |
| 1778282135 | 15.56° C | 22% | 977.9 hPa | 0 mm | - | - | - |
| 1778281258 | 15.56° C | 22% | 977.9 hPa | 0 mm | - | - | - |
| 1778280334 | 15.56° C | 22% | 978.1 hPa | 0 mm | - | - | - |
| 1778279453 | 15.56° C | 21% | 979 hPa | 0 mm | - | - | - |
| 1778278535 | 16.11° C | 21% | 979 hPa | 0 mm | - | - | - |
| 1778277659 | 16.11° C | 21% | 979 hPa | 0 mm | - | - | - |
| 1778276735 | 16.11° C | 21% | 979.5 hPa | 0 mm | - | - | - |
| 1778275852 | 16.11° C | 22% | 979 hPa | 0 mm | - | - | - |
| 1778274935 | 16.67° C | 22% | 979 hPa | 0 mm | - | - | - |
| 1778274063 | 16.67° C | 22% | 979 hPa | 0 mm | - | - | - |
| 1778273135 | 16.67° C | 24% | 979 hPa | 0 mm | - | - | - |
| 1778272253 | 16.67° C | 22% | 978.9 hPa | 0 mm | - | - | - |
| 1778271335 | 16.67° C | 22% | 979 hPa | 0 mm | - | - | - |
| 1778270460 | 16.67° C | 22% | 979 hPa | 0 mm | - | - | - |
* Rain latest hour (hover to see other rain measurements)
** Current wind speed in m/s (hover to see current wind gust speed)